This is the latest recevied weather packets stored in our database for station/object NK7E-2. If no packets are shown the sender has not sent any weather packets the latest 10 day(s).
| Time | Temp. | Humidity | Pressure | Rain* | Wind** | Luminosity | Snow |
|---|---|---|---|---|---|---|---|
| 1787812217 | 31.11° C | 25% | 1029.3 hPa | 0 mm | - | - | - |
| 1787811617 | 31.67° C | 25% | 1029.2 hPa | 0 mm | - | - | - |
| 1787811317 | 31.11° C | 25% | 1029 hPa | 0 mm | - | - | - |
| 1787810717 | 30.56° C | 27% | 1028.9 hPa | 0 mm | - | - | - |
| 1787810117 | 30.56° C | 27% | 1029.2 hPa | 0 mm | - | - | - |
| 1787809517 | 31.11° C | 26% | 1029.1 hPa | 0 mm | - | - | - |
| 1787808917 | 31.11° C | 25% | 1029 hPa | 0 mm | - | - | - |
| 1787808317 | 31.67° C | 24% | 1029.1 hPa | 0 mm | - | - | - |
| 1787807717 | 31.67° C | 24% | 1028.8 hPa | 0 mm | - | - | - |
| 1787807117 | 32.22° C | 23% | 1028.8 hPa | 0 mm | - | - | - |
| 1787806517 | 32.22° C | 23% | 1028.5 hPa | 0 mm | - | - | - |
| 1787805917 | 32.78° C | 22% | 1028.5 hPa | 0 mm | - | - | - |
| 1787805317 | 33.33° C | 21% | 1028.6 hPa | 0 mm | - | - | - |
| 1787804717 | 33.89° C | 21% | 1028.8 hPa | 0 mm | - | - | - |
| 1787804117 | 34.44° C | 20% | 1028.7 hPa | 0 mm | - | - | - |
| 1787803517 | 34.44° C | 20% | 1028.8 hPa | 0 mm | - | - | - |
| 1787802917 | 34.44° C | 20% | 1028.6 hPa | 0 mm | - | - | - |
| 1787802317 | 35° C | 20% | 1028.8 hPa | 0 mm | - | - | - |
| 1787801717 | 34.44° C | 21% | 1028.7 hPa | 0 mm | - | - | - |
| 1787801117 | 33.33° C | 23% | 1027.8 hPa | 0 mm | - | - | - |
| 1787800517 | 33.33° C | 22% | 1027.6 hPa | 0 mm | - | - | - |
| 1787799917 | 33.89° C | 22% | 1027.5 hPa | 0 mm | - | - | - |
| 1787799317 | 33.89° C | 22% | 1027.3 hPa | 0 mm | - | - | - |
| 1787798717 | 33.89° C | 22% | 1027.1 hPa | 0 mm | - | - | - |
| 1787798117 | 34.44° C | 21% | 1026.9 hPa | 0 mm | - | - | - |
* Rain latest hour (hover to see other rain measurements)
** Current wind speed in m/s (hover to see current wind gust speed)